Skip Page Navigation
NASA JPL Caltech
NASA Logo - Jet Propulsion Laboratory + View the NASA Portal
+ Center for Near-Earth Object Studies
JPL Home Earth Solar System Stars & Galaxies Technology
JPL Solar System Dynamics
BODIES ORBITS EPHEMERIDES TOOLS PHYSICAL DATA DISCOVERY FAQ SITE MAP
IMPORTANT: The SSD Announcement email list is now available. Major changes are coming in the near future, including possible hostname and/or URL changes. To be notified of such changes, subscribe to this email list.

Please visit this page for more details.


JPL Small-Body Database Browser
Search: [ help ]  
35061 (1986 QL3)
Classification: Main-belt Asteroid          SPK-ID: 2035061
Ephemeris | Orbit Diagram | Orbital Elements | Mission Design | Physical Parameters | Discovery Circumstances | Close-Approach Data ]

[ show orbit diagram ]
Orbital Elements at Epoch 2458600.5 (2019-Apr-27.0) TDB
Reference: JPL 23 (heliocentric ecliptic J2000)
 Element Value Uncertainty (1-sigma)   Units 
e .3354040773019601 4.0319e-08  
a 2.733627774862112 1.114e-08 au
q 1.816757873347475 1.089e-07 au
i 5.637584321020215 4.6412e-06 deg
node 132.2720558735857 4.164e-05 deg
peri 193.9078970067029 4.221e-05 deg
M 91.36513125322378 6.9514e-06 deg
tp 2458181.527540521566
(2018-Mar-04.02754052)
3.0294e-05 TDB
period 1650.849545590885
4.52
1.0092e-05
2.763e-08
d
yr
n .2180695393844301 1.3331e-09 deg/d
Q 3.650497676376749 1.4877e-08 au
  Orbit Determination Parameters
   # obs. used (total)      644  
   data-arc span      11852 days (32.45 yr)  
   first obs. used      1986-08-29  
   last obs. used      2019-02-09  
   planetary ephem.      DE431  
   SB-pert. ephem.      SB431-N16  
   condition code      0  
   norm. resid. RMS      .55161  
   source      ORB  
   producer      Otto Matic  
   solution date      2019-Jul-13 01:45:10  

Additional Information
 Earth MOID = .804662 au 
 Jupiter MOID = 1.70908 au 
 T_jup = 3.263 
[ show covariance matrix ]

Ephemeris | Orbit Diagram | Orbital Elements | Mission Design | Physical Parameters | Discovery Circumstances | Close-Approach Data ]

Physical Parameter Table
Parameter Symbol Value Units Sigma Reference Notes
absolute magnitude H 15.3   n/a MPO452661  

35061 (1986 QL3)          Discovered 1986-Aug-29 by Debehogne, H. at La Silla
Reference: 20020227/Numbers.arcLast Updated: 2004-04-19

[ show close-approach data ]
Alternate Designations
 1986 QL3 = 2000 WC38 
Ephemeris | Orbit Diagram | Orbital Elements | Mission Design | Physical Parameters | Discovery Circumstances | Close-Approach Data ]
ABOUT SSD CREDITS/AWARDS PRIVACY/COPYRIGHT GLOSSARY LINKS
FirstGov
(server date/time)  
NASA Home Page
Site Manager:   Ryan S. Park
Webmaster  Alan B. Chamberlin